| time (UTC) | temp C | wind direction | speed KPH | gust KPH | rain 1hr cm | rain 24hr cm | rain mn cm | humidity % | barometer mb |
| 20260505204648 | 28 | 183 | 11.3 | 22.5 | 0.00 | 0.00 | 0.00 | 69 | 1007.5 |
| 20260505204133 | 28 | 167 | 6.4 | 16.1 | 0.00 | 0.00 | 0.00 | 71 | 1007.6 |
| 20260505203644 | 27 | 169 | 9.7 | 22.5 | 0.00 | 0.00 | 0.00 | 70 | 1007.8 |
| 20260505203213 | 27 | 177 | 8.0 | 22.5 | 0.00 | 0.00 | 0.00 | 71 | 1007.8 |
| 20260505202654 | 28 | 205 | 9.7 | 22.5 | 0.00 | 0.00 | 0.00 | 70 | 1007.9 |
| 20260505202143 | 28 | 229 | 14.5 | 22.5 | 0.00 | 0.00 | 0.00 | 70 | 1008.0 |
| 20260505201656 | 27 | 171 | 4.8 | 20.9 | 0.00 | 0.00 | 0.00 | 70 | 1007.8 |
| 20260505201212 | 27 | 192 | 4.8 | 20.9 | 0.00 | 0.00 | 0.00 | 72 | 1008.0 |
| 20260505200633 | 27 | 167 | 9.7 | 19.3 | 0.00 | 0.00 | 0.00 | 72 | 1008.0 |
| 20260505200144 | 27 | 132 | 11.3 | 20.9 | 0.00 | 0.00 | 0.00 | 71 | 1008.1 |
| 20260505195654 | 27 | 234 | 11.3 | 20.9 | 0.00 | 0.00 | 0.00 | 71 | 1008.1 |
| 20260505195136 | 27 | 225 | 6.4 | 22.5 | 0.00 | 0.00 | 0.00 | 74 | 1008.2 |
| 20260505194643 | 27 | 146 | 14.5 | 25.7 | 0.00 | 0.00 | 0.00 | 73 | 1008.1 |
| 20260505194155 | 27 | 160 | 16.1 | 25.7 | 0.00 | 0.00 | 0.00 | 73 | 1008.3 |
| 20260505193634 | 27 | 175 | 3.2 | 22.5 | 0.00 | 0.00 | 0.00 | 73 | 1008.3 |
| 20260505193145 | 27 | 165 | 11.3 | 22.5 | 0.00 | 0.00 | 0.00 | 73 | 1008.4 |
| 20260505192628 | 27 | 247 | 11.3 | 20.9 | 0.00 | 0.00 | 0.00 | 72 | 1008.4 |
| 20260505192141 | 27 | 113 | 9.7 | 20.9 | 0.00 | 0.00 | 0.00 | 74 | 1008.5 |
| 20260505191712 | 27 | 144 | 8.0 | 17.7 | 0.00 | 0.00 | 0.00 | 73 | 1008.5 |
| 20260505191201 | 26 | 171 | 6.4 | 20.9 | 0.00 | 0.00 | 0.00 | 76 | 1008.7 |
| 20260505190713 | 26 | 213 | 9.7 | 20.9 | 0.00 | 0.00 | 0.00 | 74 | 1008.7 |
| 20260505190150 | 26 | 195 | 11.3 | 20.9 | 0.00 | 0.00 | 0.00 | 75 | 1008.7 |
| 20260505185636 | 26 | 233 | 1.6 | 22.5 | 0.00 | 0.00 | 0.00 | 78 | 1008.8 |
| 20260505185138 | 26 | 183 | 9.7 | 22.5 | 0.00 | 0.00 | 0.00 | 75 | 1009.0 |
| 20260505184644 | 26 | 214 | 8.0 | 22.5 | 0.00 | 0.00 | 0.00 | 76 | 1009.0 |
| 20260505184135 | 26 | 219 | 9.7 | 16.1 | 0.00 | 0.00 | 0.00 | 77 | 1009.0 |
| 20260505183637 | 26 | 254 | 4.8 | 20.9 | 0.00 | 0.00 | 0.00 | 77 | 1009.1 |
| 20260505183216 | 26 | 193 | 3.2 | 16.1 | 0.00 | 0.00 | 0.00 | 78 | 1009.1 |
| 20260505182657 | 25 | 225 | 9.7 | 14.5 | 0.00 | 0.00 | 0.00 | 79 | 1009.1 |
| 20260505182147 | 25 | 209 | 6.4 | 11.3 | 0.00 | 0.00 | 0.00 | 79 | 1009.2 |
| 20260505181658 | 25 | 210 | 1.6 | 14.5 | 0.00 | 0.00 | 0.00 | 79 | 1009.2 |
| 20260505181139 | 25 | 219 | 8.0 | 16.1 | 0.00 | 0.00 | 0.00 | 79 | 1009.2 |
| 20260505180650 | 25 | 164 | 3.2 | 14.5 | 0.00 | 0.00 | 0.00 | 79 | 1009.4 |
| 20260505180131 | 25 | 180 | 4.8 | 16.1 | 0.00 | 0.00 | 0.00 | 79 | 1009.4 |
| 20260505175640 | 25 | 210 | 4.8 | 17.7 | 0.00 | 0.00 | 0.00 | 79 | 1009.5 |
| 20260505175212 | 25 | 229 | 6.4 | 19.3 | 0.00 | 0.00 | 0.00 | 78 | 1009.5 |
| 20260505174635 | 25 | 204 | 8.0 | 22.5 | 0.00 | 0.00 | 0.00 | 80 | 1009.5 |
| 20260505174146 | 25 | 189 | 14.5 | 22.5 | 0.00 | 0.00 | 0.00 | 80 | 1009.6 |
| 20260505173654 | 25 | 229 | 8.0 | 19.3 | 0.00 | 0.00 | 0.00 | 81 | 1009.6 |
| 20260505173136 | 24 | 206 | 9.7 | 20.9 | 0.00 | 0.00 | 0.00 | 82 | 1009.7 |
| 20260505172648 | 24 | 184 | 11.3 | 20.9 | 0.00 | 0.00 | 0.00 | 82 | 1009.8 |
| 20260505172128 | 24 | 188 | 11.3 | 20.9 | 0.00 | 0.00 | 0.00 | 82 | 1009.6 |
| 20260505171637 | 24 | 198 | 8.0 | 17.7 | 0.00 | 0.00 | 0.00 | 83 | 1009.7 |
| 20260505171148 | 24 | 208 | 8.0 | 17.7 | 0.00 | 0.00 | 0.00 | 84 | 1009.7 |
| 20260505170659 | 24 | 213 | 6.4 | 24.1 | 0.00 | 0.00 | 0.00 | 83 | 1009.7 |
| 20260505170139 | 24 | 183 | 9.7 | 25.7 | 0.00 | 0.00 | 0.00 | 83 | 1009.8 |
| 20260505165647 | 24 | 161 | 12.9 | 25.7 | 0.00 | 0.00 | 0.00 | 83 | 1009.7 |
| 20260505165157 | 23 | 217 | 9.7 | 20.9 | 0.00 | 0.00 | 0.00 | 84 | 1009.6 |
| 20260505164639 | 23 | 222 | 8.0 | 20.9 | 0.00 | 0.00 | 0.00 | 86 | 1009.6 |
| 20260505164207 | 23 | 196 | 11.3 | 20.9 | 0.00 | 0.00 | 0.00 | 87 | 1009.6 |
| 20260505163639 | 23 | 244 | 11.3 | 20.9 | 0.00 | 0.00 | 0.00 | 87 | 1009.7 |
| 20260505163148 | 23 | 231 | 8.0 | 20.9 | 0.00 | 0.00 | 0.00 | 88 | 1009.8 |
| 20260505162630 | 22 | 240 | 4.8 | 22.5 | 0.00 | 0.00 | 0.00 | 88 | 1009.8 |
| 20260505162140 | 22 | 214 | 8.0 | 22.5 | 0.00 | 0.00 | 0.00 | 88 | 1009.8 |
| 20260505161651 | 22 | 221 | 12.9 | 19.3 | 0.00 | 0.00 | 0.00 | 89 | 1009.8 |
| 20260505161130 | 22 | 236 | 11.3 | 20.9 | 0.00 | 0.00 | 0.00 | 89 | 1009.7 |
| 20260505160641 | 22 | 231 | 11.3 | 24.1 | 0.00 | 0.00 | 0.00 | 90 | 1009.7 |
| 20260505160212 | 22 | 232 | 11.3 | 24.1 | 0.00 | 0.00 | 0.00 | 90 | 1009.6 |
| 20260505153159 | 21 | 198 | 8.0 | 16.1 | 0.00 | 0.00 | 0.00 | 93 | 1009.8 |
| 20260505152642 | 21 | 226 | 4.8 | 16.1 | 0.00 | 0.00 | 0.00 | 93 | 1009.8 |
| 20260505152151 | 21 | 182 | 6.4 | 16.1 | 0.00 | 0.00 | 0.00 | 93 | 1009.7 |
| 20260505151633 | 21 | 216 | 8.0 | 17.7 | 0.00 | 0.00 | 0.00 | 93 | 1009.7 |
| 20260505151141 | 21 | 225 | 3.2 | 17.7 | 0.00 | 0.00 | 0.00 | 93 | 1009.6 |
| 20260505150653 | 21 | 204 | 8.0 | 19.3 | 0.00 | 0.00 | 0.00 | 93 | 1009.7 |
| 20260505150151 | 21 | 229 | 6.4 | 14.5 | 0.00 | 0.00 | 0.00 | 93 | 1009.7 |
| 20260505140640 | 20 | 227 | 9.7 | 22.5 | 0.00 | 0.00 | 0.00 | 93 | 1009.6 |
| 20260505140149 | 20 | 218 | 14.5 | 22.5 | 0.00 | 0.00 | 0.00 | 93 | 1009.6 |
| 20260505130138 | 20 | 199 | 9.7 | 20.9 | 0.00 | 0.00 | 0.00 | 92 | 1009.1 |
| 20260505124638 | 20 | 218 | 11.3 | 22.5 | 0.00 | 0.00 | 0.00 | 92 | 1009.0 |
| 20260505124150 | 20 | 205 | 11.3 | 22.5 | 0.00 | 0.00 | 0.00 | 92 | 1008.9 |
| 20260505123653 | 20 | 179 | 11.3 | 20.9 | 0.00 | 0.00 | 0.00 | 92 | 1008.9 |
| 20260505123143 | 20 | 183 | 12.9 | 19.3 | 0.00 | 0.00 | 0.00 | 92 | 1008.8 |
| 20260505122654 | 20 | 186 | 9.7 | 17.7 | 0.00 | 0.00 | 0.00 | 92 | 1008.8 |
| 20260505122137 | 20 | 223 | 8.0 | 16.1 | 0.00 | 0.00 | 0.00 | 92 | 1008.6 |
| 20260505121647 | 20 | 195 | 6.4 | 16.1 | 0.00 | 0.00 | 0.00 | 92 | 1008.5 |
| 20260505121131 | 20 | 211 | 9.7 | 16.1 | 0.00 | 0.00 | 0.00 | 92 | 1008.4 |
| 20260505120643 | 20 | 161 | 11.3 | 17.7 | 0.00 | 0.00 | 0.00 | 92 | 1008.4 |
| 20260505120146 | 20 | 188 | 9.7 | 14.5 | 0.00 | 0.00 | 0.00 | 92 | 1008.4 |
| 20260505115638 | 20 | 161 | 8.0 | 17.7 | 0.00 | 0.00 | 0.00 | 92 | 1008.4 |
| 20260505115140 | 20 | 177 | 6.4 | 16.1 | 0.00 | 0.00 | 0.00 | 92 | 1008.3 |
| 20260505114631 | 20 | 207 | 6.4 | 17.7 | 0.00 | 0.00 | 0.00 | 92 | 1008.3 |
| 20260505114141 | 20 | 183 | 8.0 | 19.3 | 0.00 | 0.00 | 0.00 | 92 | 1008.3 |
| 20260505113642 | 20 | 207 | 8.0 | 25.7 | 0.00 | 0.00 | 0.00 | 92 | 1008.3 |
| 20260505113212 | 20 | 210 | 11.3 | 25.7 | 0.00 | 0.00 | 0.00 | 92 | 1008.3 |
| 20260505112656 | 20 | 211 | 9.7 | 20.9 | 0.00 | 0.00 | 0.00 | 92 | 1008.3 |
| 20260505112206 | 20 | 176 | 11.3 | 22.5 | 0.00 | 0.00 | 0.00 | 92 | 1008.2 |
| 20260505111627 | 20 | 213 | 12.9 | 22.5 | 0.00 | 0.00 | 0.00 | 92 | 1008.2 |
| 20260505111139 | 20 | 198 | 9.7 | 20.9 | 0.00 | 0.00 | 0.00 | 92 | 1008.3 |
| 20260505110650 | 20 | 197 | 11.3 | 20.9 | 0.00 | 0.00 | 0.00 | 92 | 1008.3 |
| 20260505110129 | 20 | 215 | 9.7 | 29.0 | 0.00 | 0.00 | 0.00 | 92 | 1008.3 |
| 20260505102201 | 20 | 162 | 9.7 | 19.3 | 0.00 | 0.00 | 0.00 | 92 | 1008.4 |
| 20260505101636 | 20 | 187 | 9.7 | 19.3 | 0.00 | 0.00 | 0.00 | 92 | 1008.4 |
| 20260505101147 | 20 | 170 | 11.3 | 20.9 | 0.00 | 0.00 | 0.00 | 92 | 1008.5 |
| 20260505100628 | 20 | 196 | 8.0 | 22.5 | 0.00 | 0.00 | 0.00 | 92 | 1008.5 |
| 20260505100141 | 20 | 196 | 9.7 | 22.5 | 0.00 | 0.00 | 0.00 | 92 | 1008.5 |
| 20260505095630 | 20 | 196 | 8.0 | 22.5 | 0.00 | 0.00 | 0.00 | 92 | 1008.6 |
| 20260505095205 | 20 | 165 | 11.3 | 20.9 | 0.00 | 0.00 | 0.00 | 92 | 1008.5 |
| 20260505094700 | 20 | 215 | 11.3 | 20.9 | 0.00 | 0.00 | 0.00 | 92 | 1008.5 |
| 20260505094136 | 20 | 188 | 8.0 | 20.9 | 0.00 | 0.00 | 0.00 | 92 | 1008.6 |
| 20260505093648 | 20 | 226 | 8.0 | 25.7 | 0.00 | 0.00 | 0.00 | 92 | 1008.6 |
| 20260505093155 | 20 | 192 | 12.9 | 25.7 | 0.00 | 0.00 | 0.00 | 92 | 1008.6 |
| 20260505092638 | 20 | 189 | 12.9 | 19.3 | 0.00 | 0.00 | 0.00 | 91 | 1008.6 |
| 20260505092152 | 20 | 203 | 8.0 | 25.7 | 0.00 | 0.00 | 0.00 | 91 | 1008.8 |
| 20260505091701 | 20 | 143 | 8.0 | 25.7 | 0.00 | 0.00 | 0.00 | 91 | 1008.7 |
| 20260505091151 | 20 | 148 | 9.7 | 20.9 | 0.00 | 0.00 | 0.00 | 92 | 1008.8 |
| 20260505090634 | 20 | 146 | 6.4 | 20.9 | 0.00 | 0.00 | 0.00 | 91 | 1008.8 |
| 20260505090146 | 20 | 225 | 8.0 | 24.1 | 0.00 | 0.00 | 0.00 | 91 | 1008.8 |
| 20260505085627 | 20 | 189 | 14.5 | 25.7 | 0.00 | 0.00 | 0.00 | 91 | 1008.6 |
| 20260505085140 | 20 | 215 | 14.5 | 25.7 | 0.00 | 0.00 | 0.00 | 91 | 1008.6 |
| 20260505084651 | 20 | 203 | 12.9 | 25.7 | 0.00 | 0.00 | 0.00 | 91 | 1008.8 |
| 20260505084129 | 20 | 216 | 12.9 | 30.6 | 0.00 | 0.00 | 0.00 | 91 | 1008.7 |
| 20260505083701 | 20 | 182 | 12.9 | 30.6 | 0.00 | 0.00 | 0.00 | 91 | 1008.8 |
| 20260505083154 | 20 | 192 | 16.1 | 30.6 | 0.00 | 0.00 | 0.00 | 91 | 1008.9 |
| 20260505082659 | 20 | 193 | 11.3 | 29.0 | 0.00 | 0.00 | 0.00 | 91 | 1009.0 |
| 20260505082208 | 20 | 169 | 12.9 | 24.1 | 0.00 | 0.00 | 0.00 | 90 | 1009.0 |
| 20260505081637 | 20 | 194 | 14.5 | 29.0 | 0.00 | 0.00 | 0.00 | 90 | 1009.1 |
| 20260505081205 | 20 | 186 | 14.5 | 29.0 | 0.00 | 0.00 | 0.00 | 90 | 1009.2 |
| 20260505080625 | 20 | 187 | 16.1 | 24.1 | 0.00 | 0.00 | 0.00 | 90 | 1009.2 |
| 20260505080139 | 20 | 152 | 12.9 | 24.1 | 0.00 | 0.00 | 0.00 | 90 | 1009.1 |
| 20260505075649 | 20 | 205 | 9.7 | 24.1 | 0.00 | 0.00 | 0.00 | 90 | 1009.2 |
| 20260505075127 | 21 | 199 | 11.3 | 22.5 | 0.00 | 0.00 | 0.00 | 90 | 1009.3 |
| 20260505074657 | 21 | 230 | 14.5 | 22.5 | 0.00 | 0.00 | 0.00 | 90 | 1009.3 |
| 20260505074145 | 21 | 136 | 8.0 | 24.1 | 0.00 | 0.00 | 0.00 | 90 | 1009.3 |
| 20260505073656 | 21 | 148 | 8.0 | 24.1 | 0.00 | 0.00 | 0.00 | 90 | 1009.4 |
| 20260505073139 | 21 | 180 | 11.3 | 29.0 | 0.00 | 0.00 | 0.00 | 90 | 1009.6 |
| 20260505072650 | 21 | 237 | 11.3 | 32.2 | 0.00 | 0.00 | 0.00 | 90 | 1009.6 |
| 20260505072146 | 21 | 200 | 14.5 | 32.2 | 0.00 | 0.00 | 0.00 | 89 | 1009.6 |
| 20260505071657 | 21 | 197 | 12.9 | 29.0 | 0.00 | 0.00 | 0.00 | 89 | 1009.8 |
| 20260505071139 | 21 | 135 | 9.7 | 30.6 | 0.00 | 0.00 | 0.00 | 89 | 1010.0 |
| 20260505070651 | 21 | 190 | 12.9 | 30.6 | 0.00 | 0.00 | 0.00 | 89 | 1010.1 |
| 20260505070132 | 21 | 158 | 6.4 | 25.7 | 0.00 | 0.00 | 0.00 | 89 | 1010.2 |
| 20260505065624 | 21 | 190 | 12.9 | 25.7 | 0.00 | 0.00 | 0.00 | 88 | 1010.2 |
| 20260505065133 | 21 | 221 | 12.9 | 22.5 | 0.00 | 0.00 | 0.00 | 88 | 1010.3 |
| 20260505064656 | 21 | 143 | 6.4 | 22.5 | 0.00 | 0.00 | 0.00 | 88 | 1010.3 |
| 20260505064134 | 21 | 202 | 11.3 | 22.5 | 0.00 | 0.00 | 0.00 | 88 | 1010.3 |
| 20260505063642 | 21 | 158 | 12.9 | 25.7 | 0.00 | 0.00 | 0.00 | 88 | 1010.3 |
| 20260505063130 | 21 | 180 | 12.9 | 32.2 | 0.00 | 0.00 | 0.00 | 88 | 1010.4 |
| 20260505062629 | 21 | 153 | 9.7 | 32.2 | 0.00 | 0.00 | 0.00 | 88 | 1010.4 |
| 20260505062145 | 21 | 138 | 6.4 | 33.8 | 0.00 | 0.00 | 0.00 | 88 | 1010.3 |
| 20260505061644 | 21 | 188 | 16.1 | 33.8 | 0.00 | 0.00 | 0.00 | 88 | 1010.2 |
| 20260505061147 | 21 | 200 | 14.5 | 32.2 | 0.00 | 0.00 | 0.00 | 88 | 1010.3 |
| 20260505060633 | 21 | 177 | 9.7 | 29.0 | 0.00 | 0.00 | 0.00 | 87 | 1010.3 |
| 20260505060137 | 21 | 146 | 12.9 | 32.2 | 0.00 | 0.00 | 0.00 | 87 | 1010.5 |
| 20260505055645 | 21 | 139 | 12.9 | 38.6 | 0.00 | 0.00 | 0.00 | 87 | 1010.5 |
| 20260505055133 | 21 | 171 | 17.7 | 38.6 | 0.00 | 0.00 | 0.00 | 87 | 1010.6 |
| 20260505054637 | 21 | 153 | 16.1 | 32.2 | 0.00 | 0.00 | 0.00 | 87 | 1010.6 |
| 20260505054133 | 21 | 111 | 14.5 | 25.7 | 0.00 | 0.00 | 0.00 | 87 | 1010.7 |
| 20260505053640 | 21 | 168 | 12.9 | 29.0 | 0.00 | 0.00 | 0.00 | 87 | 1010.6 |
| 20260505053149 | 21 | 196 | 9.7 | 29.0 | 0.00 | 0.00 | 0.00 | 87 | 1010.6 |
| 20260505052636 | 21 | 202 | 11.3 | 22.5 | 0.00 | 0.00 | 0.00 | 86 | 1010.6 |
| 20260505052144 | 21 | 180 | 9.7 | 25.7 | 0.00 | 0.00 | 0.00 | 86 | 1010.6 |
| 20260505051644 | 21 | 179 | 17.7 | 25.7 | 0.00 | 0.00 | 0.00 | 86 | 1010.6 |
| 20260505051128 | 21 | 169 | 11.3 | 24.1 | 0.00 | 0.00 | 0.00 | 86 | 1010.6 |
| 20260505050636 | 21 | 130 | 9.7 | 30.6 | 0.00 | 0.00 | 0.00 | 86 | 1010.3 |
| 20260505050135 | 21 | 163 | 11.3 | 30.6 | 0.00 | 0.00 | 0.00 | 86 | 1010.3 |
| 20260505041628 | 22 | 167 | 12.9 | 25.7 | 0.00 | 0.00 | 0.00 | 85 | 1010.7 |
| 20260505041128 | 22 | 185 | 11.3 | 17.7 | 0.00 | 0.00 | 0.00 | 84 | 1010.6 |
| 20260505040639 | 22 | 171 | 11.3 | 20.9 | 0.00 | 0.00 | 0.00 | 84 | 1010.6 |
| 20260505040150 | 22 | 137 | 8.0 | 20.9 | 0.00 | 0.00 | 0.00 | 84 | 1010.6 |
| 20260505035632 | 22 | 160 | 11.3 | 20.9 | 0.00 | 0.00 | 0.00 | 83 | 1010.7 |
| 20260505035144 | 22 | 171 | 11.3 | 22.5 | 0.00 | 0.00 | 0.00 | 83 | 1010.5 |
| 20260505034654 | 22 | 185 | 11.3 | 22.5 | 0.00 | 0.00 | 0.00 | 83 | 1010.5 |
| 20260505034136 | 22 | 136 | 14.5 | 22.5 | 0.00 | 0.00 | 0.00 | 82 | 1010.3 |
| 20260505033647 | 22 | 119 | 9.7 | 16.1 | 0.00 | 0.00 | 0.00 | 82 | 1010.4 |
| 20260505033147 | 22 | 153 | 9.7 | 17.7 | 0.00 | 0.00 | 0.00 | 81 | 1010.4 |
| 20260505032658 | 22 | 153 | 11.3 | 22.5 | 0.00 | 0.00 | 0.00 | 81 | 1010.4 |
| 20260505032138 | 22 | 143 | 11.3 | 22.5 | 0.00 | 0.00 | 0.00 | 81 | 1010.4 |
| 20260505031647 | 22 | 152 | 9.7 | 17.7 | 0.00 | 0.00 | 0.00 | 81 | 1010.3 |
| 20260505031129 | 22 | 115 | 8.0 | 16.1 | 0.00 | 0.00 | 0.00 | 80 | 1010.2 |
| 20260505030701 | 22 | 163 | 9.7 | 16.1 | 0.00 | 0.00 | 0.00 | 80 | 1010.3 |
| 20260505030147 | 22 | 156 | 9.7 | 16.1 | 0.00 | 0.00 | 0.00 | 79 | 1010.3 |
| 20260505025628 | 22 | 147 | 9.7 | 16.1 | 0.00 | 0.00 | 0.00 | 78 | 1010.1 |
| 20260505025140 | 22 | 134 | 8.0 | 12.9 | 0.00 | 0.00 | 0.00 | 78 | 1010.3 |
| 20260505024651 | 23 | 173 | 6.4 | 9.7 | 0.00 | 0.00 | 0.00 | 78 | 1010.4 |
| 20260505024127 | 23 | 190 | 4.8 | 9.7 | 0.00 | 0.00 | 0.00 | 78 | 1010.3 |
| 20260505023642 | 23 | 166 | 1.6 | 11.3 | 0.00 | 0.00 | 0.00 | 78 | 1010.2 |
| 20260505023146 | 23 | 192 | 4.8 | 12.9 | 0.00 | 0.00 | 0.00 | 77 | 1010.2 |
| 20260505022658 | 23 | 175 | 4.8 | 14.5 | 0.00 | 0.00 | 0.00 | 77 | 1010.3 |
| 20260505022144 | 23 | 159 | 8.0 | 14.5 | 0.00 | 0.00 | 0.00 | 77 | 1010.3 |
| 20260505021658 | 23 | 174 | 6.4 | 11.3 | 0.00 | 0.00 | 0.00 | 77 | 1010.3 |
| 20260505021133 | 23 | 165 | 8.0 | 16.1 | 0.00 | 0.00 | 0.00 | 76 | 1010.2 |
| 20260505020647 | 23 | 164 | 6.4 | 16.1 | 0.00 | 0.00 | 0.00 | 76 | 1010.0 |
| 20260505020144 | 23 | 152 | 6.4 | 16.1 | 0.00 | 0.00 | 0.00 | 76 | 1010.0 |
| 20260505015635 | 23 | 136 | 8.0 | 16.1 | 0.00 | 0.00 | 0.00 | 75 | 1009.9 |
| 20260505015156 | 23 | 152 | 9.7 | 16.1 | 0.00 | 0.00 | 0.00 | 75 | 1009.9 |
| 20260505014656 | 23 | 152 | 8.0 | 17.7 | 0.00 | 0.00 | 0.00 | 75 | 1009.9 |
| 20260505014132 | 23 | 146 | 8.0 | 17.7 | 0.00 | 0.00 | 0.00 | 74 | 1009.8 |
| 20260505013642 | 24 | 176 | 6.4 | 16.1 | 0.00 | 0.00 | 0.00 | 73 | 1009.8 |
| 20260505013142 | 24 | 136 | 8.0 | 16.1 | 0.00 | 0.00 | 0.00 | 73 | 1009.8 |
| 20260505012633 | 24 | 169 | 6.4 | 14.5 | 0.00 | 0.00 | 0.00 | 72 | 1009.9 |
| 20260505012158 | 24 | 178 | 8.0 | 12.9 | 0.00 | 0.00 | 0.00 | 71 | 1009.9 |
| 20260505011639 | 24 | 155 | 6.4 | 14.5 | 0.00 | 0.00 | 0.00 | 70 | 1009.8 |
| 20260505011144 | 25 | 180 | 6.4 | 16.1 | 0.00 | 0.00 | 0.00 | 69 | 1009.7 |
| 20260505010654 | 25 | 165 | 8.0 | 16.1 | 0.00 | 0.00 | 0.00 | 69 | 1009.7 |
| 20260505010130 | 25 | 185 | 8.0 | 16.1 | 0.00 | 0.00 | 0.00 | 68 | 1009.8 |
| 20260505005641 | 25 | 216 | 9.7 | 20.9 | 0.00 | 0.00 | 0.00 | 68 | 1009.8 |
| 20260505005212 | 25 | 202 | 9.7 | 20.9 | 0.00 | 0.00 | 0.00 | 68 | 1009.8 |
| 20260505004633 | 25 | 174 | 9.7 | 22.5 | 0.00 | 0.00 | 0.00 | 67 | 1009.7 |
| 20260505004156 | 25 | 163 | 16.1 | 22.5 | 0.00 | 0.00 | 0.00 | 67 | 1009.5 |
| 20260505003646 | 25 | 190 | 11.3 | 20.9 | 0.00 | 0.00 | 0.00 | 66 | 1009.6 |
| 20260505003137 | 25 | 183 | 11.3 | 19.3 | 0.00 | 0.00 | 0.00 | 66 | 1009.5 |
| 20260505002628 | 25 | 132 | 11.3 | 22.5 | 0.00 | 0.00 | 0.00 | 66 | 1009.5 |
| 20260505002154 | 26 | 172 | 14.5 | 22.5 | 0.00 | 0.00 | 0.00 | 65 | 1009.6 |
| 20260505001636 | 26 | 150 | 12.9 | 22.5 | 0.00 | 0.00 | 0.00 | 65 | 1009.6 |
| 20260505001140 | 26 | 155 | 8.0 | 24.1 | 0.00 | 0.00 | 0.00 | 65 | 1009.5 |
| 20260505000710 | 26 | 141 | 9.7 | 29.0 | 0.00 | 0.00 | 0.00 | 65 | 1009.5 |
| 20260505000158 | 26 | 163 | 14.5 | 29.0 | 0.00 | 0.00 | 0.00 | 64 | 1009.6 |
| 20260504235640 | 26 | 182 | 12.9 | 33.8 | 0.00 | 0.00 | 0.00 | 63 | 1009.8 |
| 20260504235129 | 26 | 186 | 14.5 | 25.7 | 0.00 | 0.00 | 0.00 | 63 | 1009.9 |
| 20260504234632 | 26 | 169 | 16.1 | 30.6 | 0.00 | 0.00 | 0.00 | 62 | 1009.8 |
| 20260504234141 | 26 | 159 | 19.3 | 30.6 | 0.00 | 0.00 | 0.00 | 62 | 1009.9 |
| 20260504233652 | 26 | 162 | 17.7 | 30.6 | 0.00 | 0.00 | 0.00 | 63 | 1010.0 |
| 20260504233133 | 26 | 168 | 14.5 | 22.5 | 0.00 | 0.00 | 0.00 | 63 | 1010.2 |
| 20260504232644 | 26 | 156 | 12.9 | 30.6 | 0.00 | 0.00 | 0.00 | 62 | 1010.3 |
| 20260504232155 | 26 | 169 | 14.5 | 30.6 | 0.00 | 0.00 | 0.00 | 62 | 1010.2 |
| 20260504231638 | 26 | 200 | 12.9 | 33.8 | 0.00 | 0.00 | 0.00 | 63 | 1010.2 |
| 20260504231147 | 26 | 200 | 14.5 | 33.8 | 0.00 | 0.00 | 0.00 | 62 | 1010.3 |
| 20260504230647 | 26 | 183 | 11.3 | 32.2 | 0.00 | 0.00 | 0.00 | 63 | 1010.4 |
| 20260504230137 | 26 | 173 | 16.1 | 32.2 | 0.00 | 0.00 | 0.00 | 63 | 1010.4 |
| 20260504225649 | 26 | 207 | 11.3 | 25.7 | 0.00 | 0.00 | 0.00 | 63 | 1010.4 |
| 20260504225148 | 26 | 148 | 14.5 | 25.7 | 0.00 | 0.00 | 0.00 | 63 | 1010.5 |
| 20260504224658 | 26 | 205 | 14.5 | 29.0 | 0.00 | 0.00 | 0.00 | 63 | 1010.8 |
| 20260504224208 | 26 | 219 | 17.7 | 29.0 | 0.00 | 0.00 | 0.00 | 62 | 1010.8 |
| 20260504223649 | 26 | 169 | 11.3 | 32.2 | 0.00 | 0.00 | 0.00 | 63 | 1010.7 |
| 20260504223137 | 26 | 182 | 11.3 | 32.2 | 0.00 | 0.00 | 0.00 | 63 | 1010.8 |
| 20260504222648 | 26 | 193 | 9.7 | 22.5 | 0.00 | 0.00 | 0.00 | 63 | 1010.9 |
| 20260504222148 | 26 | 180 | 12.9 | 25.7 | 0.00 | 0.00 | 0.00 | 63 | 1011.0 |
| 20260504221639 | 26 | 214 | 11.3 | 25.7 | 0.00 | 0.00 | 0.00 | 63 | 1010.8 |
| 20260504221142 | 26 | 192 | 9.7 | 29.0 | 0.00 | 0.00 | 0.00 | 63 | 1010.9 |
| 20260504220635 | 26 | 223 | 12.9 | 29.0 | 0.00 | 0.00 | 0.00 | 63 | 1010.9 |
| 20260504220143 | 26 | 184 | 11.3 | 37.0 | 0.00 | 0.00 | 0.00 | 64 | 1010.9 |
| 20260504215641 | 26 | 215 | 22.5 | 37.0 | 0.00 | 0.00 | 0.00 | 63 | 1010.8 |
| 20260504215153 | 26 | 229 | 14.5 | 32.2 | 0.00 | 0.00 | 0.00 | 63 | 1010.8 |
| 20260504214642 | 26 | 183 | 16.1 | 32.2 | 0.00 | 0.00 | 0.00 | 64 | 1010.9 |
| 20260504214154 | 25 | 193 | 12.9 | 30.6 | 0.00 | 0.00 | 0.00 | 64 | 1010.9 |
| 20260504213638 | 26 | 169 | 16.1 | 30.6 | 0.00 | 0.00 | 0.00 | 63 | 1010.9 |
| 20260504213149 | 26 | 184 | 16.1 | 30.6 | 0.00 | 0.00 | 0.00 | 63 | 1010.9 |
| 20260504212631 | 26 | 211 | 11.3 | 25.7 | 0.00 | 0.00 | 0.00 | 64 | 1011.1 |
| 20260504212141 | 26 | 203 | 17.7 | 30.6 | 0.00 | 0.00 | 0.00 | 63 | 1011.2 |
| 20260504211712 | 26 | 195 | 12.9 | 30.6 | 0.00 | 0.00 | 0.00 | 64 | 1011.3 |
| 20260504211132 | 26 | 219 | 12.9 | 24.1 | 0.00 | 0.00 | 0.00 | 65 | 1011.2 |
| 20260504210643 | 25 | 175 | 14.5 | 24.1 | 0.00 | 0.00 | 0.00 | 64 | 1011.5 |
| 20260504210145 | 26 | 199 | 12.9 | 30.6 | 0.00 | 0.00 | 0.00 | 64 | 1011.6 |
| 20260504205656 | 26 | 219 | 12.9 | 25.7 | 0.00 | 0.00 | 0.00 | 64 | 1011.8 |
| 20260504205203 | 26 | 211 | 12.9 | 25.7 | 0.00 | 0.00 | 0.00 | 64 | 1011.9 |